CDT,Max TemperatureF,Mean TemperatureF,Min TemperatureF,Max Dew PointF,MeanDew PointF,Min DewpointF,Max Humidity, Mean Humidity, Min Humidity, Max Sea Level PressureIn, Mean Sea Level PressureIn, Min Sea Level PressureIn, Max VisibilityMiles, Mean VisibilityMiles, Min VisibilityMiles, Max Wind SpeedMPH, Mean Wind SpeedMPH, Max Gust SpeedMPH,PrecipitationIn, CloudCover, Events, WindDirDegrees
2013-10-1,68,54,39,52,39,28,93,58,23,29.93,29.74,29.49,10,10,10,25,10,40,0.00,1,Rain,243
2013-10-2,60,50,39,45,39,34,87,72,48,30.03,29.98,29.94,10,10,10,14,5,17,0.00,2,Rain,184
2013-10-3,57,48,39,52,43,37,100,83,63,30.10,30.02,29.98,10,10,5,14,3,,0.00,2,Rain,10
2013-10-4,50,47,44,45,42,39,93,86,76,30.19,30.12,30.03,10,9,2,21,13,29,0.11,7,Rain,22
2013-10-5,46,44,42,45,43,41,100,93,87,30.02,29.90,29.84,10,7,1,22,15,33,0.70,8,Rain-Thunderstorm,52
2013-10-6,59,49,39,45,40,36,100,81,45,29.87,29.84,29.82,10,8,2,17,10,24,0.02,4,,336
2013-10-7,64,47,30,48,37,28,100,72,37,29.97,29.90,29.83,10,9,1,9,1,,0.00,0,,202
2013-10-8,73,60,46,46,43,37,87,61,36,29.82,29.69,29.62,10,10,5,22,10,29,0.00,0,,166
2013-10-9,73,55,37,48,40,36,93,64,27,30.01,29.93,29.78,10,9,0,8,0,,0.00,0,Fog,339
2013-10-10,73,60,48,54,47,37,82,63,44,29.99,29.85,29.76,10,10,7,16,4,23,0.00,2,,141
2013-10-11,69,60,51,57,51,46,94,70,52,29.76,29.60,29.40,10,10,4,26,14,36,0.06,3,Rain-Thunderstorm,136
2013-10-12,50,46,41,46,43,37,100,92,82,30.16,29.76,29.45,10,7,2,26,18,38,0.13,8,Rain,243
2013-10-13,55,42,30,45,35,30,100,81,38,30.39,30.32,30.17,10,10,10,12,5,,0.01,1,Rain,215
2013-10-14,48,44,39,46,42,39,100,94,87,30.39,30.27,30.13,10,10,7,12,3,17,0.81,8,Rain,87
2013-10-15,44,40,33,43,39,30,100,93,87,30.11,30.00,29.96,10,10,7,18,13,26,0.12,8,Rain,18
2013-10-16,57,42,26,46,34,25,100,84,48,30.00,29.88,29.81,10,9,0,15,5,20,0.00,1,Fog,197
2013-10-17,44,36,28,37,35,25,100,88,76,29.94,29.87,29.81,10,9,0,16,5,23,0.00,6,Fog-Rain,333
2013-10-18,48,36,24,36,29,23,100,85,46,29.93,29.87,29.75,10,9,3,17,4,26,0.13,4,Rain-Snow,214
2013-10-19,39,34,28,36,31,28,100,95,81,29.76,29.72,29.67,10,7,0,8,4,,0.08,5,Rain-Snow,240
2013-10-20,37,32,28,34,29,23,100,90,75,29.91,29.77,29.66,10,7,1,20,5,28,0.16,8,Rain-Snow,333
2013-10-21,32,28,24,28,24,19,93,83,80,29.96,29.92,29.90,10,10,7,21,12,24,0.00,8,Snow,295
2013-10-22,39,34,28,30,28,27,100,86,70,30.04,30.01,29.96,10,10,5,14,5,18,0.00,8,Snow,304
2013-10-23,32,29,26,28,22,18,93,76,60,30.12,30.06,30.00,10,10,10,16,7,20,0.00,8,Snow,310
2013-10-24,39,32,26,30,28,25,100,85,65,30.26,30.21,30.12,10,10,5,14,7,22,0.00,8,Snow,286
2013-10-25,55,39,23,37,28,21,100,74,41,30.25,29.93,29.70,10,10,10,29,12,38,0.00,1,,227
2013-10-26,41,34,26,28,26,23,93,73,56,30.12,30.03,29.89,10,10,10,20,13,24,0.00,5,,296
2013-10-27,46,36,26,30,26,19,87,70,46,30.32,29.94,29.72,10,10,7,25,13,29,0.00,3,,348
2013-10-28,37,26,15,21,16,12,93,71,45,30.54,30.46,30.32,10,10,10,12,5,17,0.00,0,,31
2013-10-29,42,30,17,27,21,12,93,75,42,30.46,30.28,30.12,10,10,7,8,0,,0.00,4,,157
2013-10-30,37,34,30,36,32,27,100,89,80,30.11,29.90,29.68,10,6,0,9,1,,0.00,8,Fog,156
2013-10-31,39,36,32,37,35,30,100,97,87,29.67,29.51,29.42,10,4,1,7,2,,0.00,7,,242